Simultaneous Nadir Overpasses (SNOs) Predictions

Prediction of SNOs between TERRA and METOP-C Satellite Orbit:

Table of predicted SNOs for the next 14.0 days since TLE Epoch: 5/21/2022
Index Date (TERRA) Time (TERRA) Lat,Lon (TERRA) SZA (TERRA ) Date (METOP-C) Time (METOP-C) Lat,Lon (METOP-C) SZA (METOP-C ) Distance(km) Time Diff (sec)
1 05/21/2022 06:05:52 -81.18, -50.05 116.62 05/21/2022 06:04:48 -81.19, -49.90 116.63 2.63 64
2 05/21/2022 06:55:18 81.19, 117.67 63.39 05/21/2022 06:55:29 81.19, 117.50 63.37 2.87 11
3 05/24/2022 01:39:59 -81.18, 16.36 117.18 05/24/2022 01:39:08 -81.18, 16.41 117.20 1.00 51
4 05/24/2022 02:29:24 81.21,-175.59 62.88 05/24/2022 02:29:47 81.20,-175.50 62.90 1.49 23
5 05/26/2022 21:14:05 -81.19, 82.91 117.67 05/26/2022 21:13:27 -81.19, 83.03 117.68 1.96 38
6 05/26/2022 22:03:31 81.19,-109.43 62.33 05/26/2022 22:04:07 81.20,-109.35 62.36 1.58 36
7 05/29/2022 16:48:10 -81.18, 149.26 118.15 05/29/2022 16:47:46 -81.18, 149.19 118.17 1.20 24
8 05/29/2022 17:37:35 81.20, -42.75 61.90 05/29/2022 17:38:25 81.20, -42.89 61.91 2.59 50
9 06/01/2022 12:22:15 -81.18,-144.24 118.56 06/01/2022 12:22:05 -81.18,-144.35 118.57 1.79 10



Historial Predications of SNOs between TERRA and METOP-C
